GALAXY 30 (G-30)

Last updated on Thu Apr 09 2026 00:02:52 GMT+0000 (Coordinated Universal Time)

1 46114U 20056C 26098.07330012 .00000039 00000+0 00000+0 0 9990 2 46114 0.0147 173.6635 0002329 208.2699 75.7858 1.00272917 20598
UTC large
Height (km)
Speed (km/s)
/
Latitude / Longitude
Inclination (degrees)
Orbital Period (minutes)
Azimuth
Elevation
Range (km)
Doppler Factor

Next 0 passes for location: London (51.5072 / 0.1276)

Sorry there are no passes over London.